Regional Weather Roundup
Issued by NWS

Home | Current Version | Previous Version | Graphics & Text | Print | Product List | Glossary Off
Versions: 1 2 3 4 5 6 7 8 9 10 11 12 13 14 15 16 17 18 19 20 21 22 23 24 25 26 27 28 29 30 31 32 33 34 35 36 37 38 39 40 41 42 43 44 45 46 47 48 49 50

000
ASUS43 KDMX 171401
RWRIA

WEATHER ROUNDUP FOR IOWA
NATIONAL WEATHER SERVICE DES MOINES IA
800 AM CST WED JAN 17 2018

NOTE: "FAIR" INDICATES FEW OR NO CLOUDS BELOW 12,000 FEET WITH NO
SIGNIFICANT WEATHER AND/OR OBSTRUCTIONS TO VISIBILITY.

* - THESE STATIONS ARE NOT NWS STATIONS...THUS NOT UNDER NWS
QUALITY CONTROL.  THEY ALSO DO NOT REPORT WEATHER SUCH
AS PRECIPITATION OR FOG.

IAZ001>003-012>014-020>022-031>034-043>046-171500-
   NORTHWEST IOWA

CITY           SKY/WX    TMP DP  RH WIND       PRES   REMARKS
CARROLL *      CLOUDY     7   0  72 SW17      30.47F WCI -12
CHEROKEE *     CLOUDY     8   3  81 SW12      30.41F WCI  -7
DENISON *      CLOUDY     5   1  85 SW9G15    30.49F WCI  -9
LE MARS *      CLOUDY     7   1  78 S10       30.40F WCI  -8
ORANGE CITY *  CLOUDY     7   1  78 SW13      30.36F WCI  -9
SHELDON *      CLOUDY     7   1  78 S16       30.35F WCI -11
SIOUX CITY     CLOUDY     8   1  73 S10       30.44F WCI  -6
SPENCER        CLOUDY     8   0  69 SW15      30.38F WCI  -9
STORM LAKE *   CLOUDY     7   0  72 SW17      30.39F WCI -12
$$

IAZ055>058-069>071-079>083-090>094-171500-
   SOUTHWEST IOWA

CITY           SKY/WX    TMP DP  RH WIND       PRES   REMARKS
ATLANTIC *     CLOUDY    -2  -6  84 SW8       30.53F WCI -17
AUDUBON *      CLOUDY     5   0  78 SW7       30.50R WCI  -7
CLARINDA *     CLOUDY    -4  -8  84 CALM      30.61S
COUNCIL BLFS * CLOUDY     3   3 100 S9        30.51F WCI -11
CRESTON *      CLOUDY     0  -4  85 SW8       30.54F WCI -15
HARLAN  *      CLOUDY    -2  -4  92 S7        30.55S WCI -16
LAMONI         CLOUDY     0  -4  83 SW6       30.58S WCI -12
RED OAK *      CLOUDY    -2  -6  84 S6        30.58S WCI -14
SHENANDOAH *   CLOUDY     0  -4  85 CALM      30.60R
$$

IAZ047>049-059>061-072>074-084-171500-
   CENTRAL IOWA

CITY           SKY/WX    TMP DP  RH WIND       PRES   REMARKS
AMES           CLOUDY    -2  -5  87 SW6       30.52F WCI -14
ANKENY *       CLOUDY    -2  -8  78 S5        30.56F FOG     WCI -12
BOONE *        CLOUDY     0  -4  85 SW8       30.49F WCI -15
CHARITON *     CLOUDY     1  -2  85 SW9       30.56S WCI -14
DES MOINES     CLOUDY    -1  -6  79 S6        30.55S WCI -13
GRINNELL*      PTCLDY    -3  -6  86 SW8       30.55S WCI -17
KNOXVILLE *    CLOUDY     0  -6  78 SW8       30.55S WCI -15
MARSHALLTOWN   CLOUDY     0  -4  83 SW9       30.51F WCI -15
NEWTON *       CLOUDY    -2  -6  84 SW8       30.55S WCI -17
PELLA *        CLOUDY    -1  -4  84 SW5       30.58F WCI -11
PERRY *          N/A     -3  -7  84 S7        30.52F WCI -17
$$

IAZ004>006-015-016-023>025-035-036-171500-
   NORTH CENTRAL IOWA

CITY           SKY/WX    TMP DP  RH WIND       PRES   REMARKS
ALGONA *       CLOUDY     5   5 100 SW13      30.40F WCI -12
CLARION *      CLOUDY     0  -4  85 S9        30.46F WCI -16
ESTHERVILLE    CLOUDY     8   1  73 SW16G23   30.36F WCI -10
FORT DODGE *   CLOUDY     1  -3  83 SW10      30.46F WCI -15
MASON CITY     CLOUDY     5  -2  72 SW13      30.43F WCI -12
FOREST CITY *    N/A      3   0  85 SW7       30.41F WCI  -9
WEBSTER CITY * CLOUDY     3  -2  78 SW14      30.45F WCI -15
IOWA FALLS *     N/A      2  -2  82 SW9       30.49F WCI -13
$$

IAZ007>011-017>019-026>030-037>042-050>054-066-171500-
   NORTHEAST IOWA

CITY           SKY/WX    TMP DP  RH WIND       PRES   REMARKS
CEDAR RAPIDS     N/A     -4  -8  83 SW3       30.53F
CHARLES CITY *   N/A     -2  -6  84 S8        30.45F WCI -17
CLINTON *        N/A     -4  -7  87 SW8       30.56F WCI -19
DECORAH *        N/A      3   0  85 W8        30.42F WCI -10
DUBUQUE          N/A     -4  -8  83 S8        30.48F WCI -19
MONTICELLO *     N/A     -2  -8  78 CALM      30.53S
OELWEIN *        N/A     -4  -4 100 SW8       30.49S WCI -19
WATERLOO         N/A     -1  -6  79 SW6       30.51F WCI -13
$$

IAZ064-065-067-068-078-171500-
   EAST CENTRAL IOWA

CITY           SKY/WX    TMP DP  RH WIND       PRES   REMARKS
DAVENPORT        N/A      0  -6  76 SW9       30.58F WCI -15
IOWA CITY        N/A     -1  -7  75 SW5       30.59F WCI -11
MT. PLEASANT * CLEAR     -4  -8  84 SW6       30.61F WCI -16
MUSCATINE *      N/A     -2  -8  78 SW3       30.62S
QUAD CITIES      N/A      0  -5  79 SW7       30.59S WCI -13
$$

IAZ062-063-075>077-085>089-095>099-171500-
   SOUTHEAST IOWA

CITY           SKY/WX    TMP DP  RH WIND       PRES   REMARKS
BURLINGTON     CLOUDY    -3  -7  82 SW8       30.61F WCI -18
FAIRFIELD *    CLOUDY    -2  -8  78 SW8       30.59S WCI -17
FORT MADISON * CLOUDY     0  -6  78 SW3       30.62S
KEOKUK *       CLOUDY    -2  -6  84 SW3       30.63R
OSKALOOSA *      N/A     -3  -6  86 SW7       30.59R WCI -16
OTTUMWA        CLOUDY    -2  -7  79 SW5       30.58S WCI -12
WASHINGTON *   CLEAR     -2  -4  92 SW7       30.60S WCI -16
$$

ABBREVIATIONS USED IN REMARKS
   TC - TEMPERATURES IN CELSIUS
  WCI - WIND CHILL INDEX
   HX - HEAT INDEX
  VSB - VISIBILITY
$$





USA.gov is the U.S. government's official web portal to all federal, state and local government web resources and services.